Location: Waverly
(39.3325°N, 76.6061°W)
Time: 08:08:48
(UTC+00:00)

ARIANE 6 FM1 Upper Stage - Pass Details

Date: 16 December 2025
Orbit: 522 x 610 km, 62.0° (Epoch: 14 January)

Event Time Altitude Azimuth Distance (km) Brightness Sun altitude
Rises 11:18:55 0° 231° (SW) 2,698 5.8 -11.5°
Reaches altitude 10° 11:21:13 10° 238° (WSW) 1,796 4.9 -11.1°
Maximum altitude 11:25:03 42° 310° (NW) 773 2.9 -10.4°
Drops below altitude 10° 11:28:50 10° 22° (NNE) 1,773 5.2 -9.7°
Sets 11:31:06 0° 30° (NNE) 2,659 6.2 -9.3°
